Location: Boise
(43.6140°N, 116.2030°W)
Time: 02:36:46
(UTC-06:00)

ISS - Visible Passes

Search period start: 24 September 2017 00:00
Search period end: 04 October 2017 00:00
Orbit: 401 x 407 km, 51.6° (Epoch: 24 September)

Date Brightness Start Highest point End Pass type
(mag) Time Alt. Az. Time Alt. Az. Time Alt. Az.
24 Sep -1.6 20:18:46 10° SE 20:19:10 10° SE 20:19:35 10° ESE visible
24 Sep -1.2 21:51:51 10° SW 21:52:28 15° SW 21:52:28 15° SW visible
25 Sep -3.5 20:59:45 10° SSW 21:02:51 42° SE 21:02:59 42° SE visible
26 Sep -2.5 20:08:01 10° S 20:10:40 23° SE 20:13:18 10° E visible
26 Sep -2.3 21:43:45 10° WSW 21:45:59 35° W 21:45:59 35° W visible
27 Sep -3.9 20:51:18 10° WSW 20:54:34 85° NW 20:56:05 29° NE visible
27 Sep -0.2 22:28:39 10° WNW 22:28:45 11° WNW 22:28:45 11° WNW visible
28 Sep -3.6 19:59:04 10° SW 20:02:14 52° SE 20:05:27 10° ENE visible
28 Sep -2.1 21:35:54 10° W 21:38:43 30° NNW 21:38:43 30° NNW visible
29 Sep -2.8 20:43:13 10° W 20:46:21 43° NNW 20:48:33 17° NE visible
29 Sep -0.3 22:20:53 10° NW 22:21:12 12° NW 22:21:12 12° NW visible
30 Sep -1.8 21:28:08 10° WNW 21:30:48 22° N 21:30:56 22° N visible
01 Oct -2.1 20:35:20 10° WNW 20:38:12 28° NNW 20:40:36 13° NE visible
01 Oct -0.4 22:12:55 10° NW 22:13:14 12° NW 22:13:14 12° NW visible
02 Oct -1.7 21:20:16 10° NW 21:22:45 20° N 21:22:51 20° N visible
03 Oct -1.8 20:27:29 10° WNW 20:30:05 21° N 20:32:25 12° NE visible
03 Oct -0.5 22:04:39 10° NW 22:05:03 12° NW 22:05:03 12° NW visible
